Regional Weather Roundup
Issued by NWS

Home | Current Version | Previous Version | Graphics & Text | Print | Product List | Glossary On
Versions: 1 2 3 4 5 6 7 8 9 10 11 12 13 14 15 16 17 18 19 20 21 22 23 24 25 26 27 28 29 30 31 32 33 34 35 36 37 38 39 40 41 42 43 44 45 46 47 48 49 50
000
ASUS43 KFSD 050010
RWRSD

WEATHER ROUNDUP FOR SOUTH DAKOTA
NATIONAL WEATHER SERVICE SIOUX FALLS SD
700 PM CDT FRI SEP 04 2015

NOTE: "FAIR" INDICATES FEW OR NO CLOUDS BELOW 12,000 FEET WITH NO
SIGNIFICANT WEATHER AND/OR OBSTRUCTIONS TO VISIBILITY.


SDZ001>005-009-010-012>017-050100-
NORTHWEST AND NORTH CENTRAL SOUTH DAKOTA

CITY           SKY/WX    TMP DP  RH WIND       PRES   REMARKS
BUFFALO          N/A     84  62  47 NE13      29.75R
FAITH            N/A     89  52  28 E12       29.78S
MOBRIDGE       SUNNY     88  66  48 E8        29.75R
$$

SDZ012>016-024>037-041>051-057-063-072>074-050100-
SOUTHWEST AND SOUTH CENTRAL SOUTH DAKOTA

CITY           SKY/WX    TMP DP  RH WIND       PRES   REMARKS
RAPID CTY ARPT MOSUNNY   86  63  45 N9        29.78S
PIERRE         MOSUNNY   87  66  49 E9        29.73R
CUSTER         PTSUNNY   80  36  20 S6        29.96S
PHILIP         PTSUNNY   87  65  47 E8        29.75R
PINE RIDGE     MOSUNNY   90  48  23 S7        29.81S
WINNER         FAIR      88  65  46 SE5       29.76R
$$

SDZ004>011-016>023-039-040-050100-
NORTHEAST SOUTH DAKOTA

CITY           SKY/WX    TMP DP  RH WIND       PRES   REMARKS
ABERDEEN       PTSUNNY   85  71  63 SE6       29.78R
WATERTOWN      FAIR      80  67  64 S13       29.84R
BROOKINGS      FAIR      79  70  73 SE17      29.86R
SISSETON         N/A     83  71  67 SE12      29.80F
$$

SDZ017-020-022-023-036>040-048>070-050100-
SOUTHEAST SOUTH DAKOTA

CITY           SKY/WX    TMP DP  RH WIND       PRES   REMARKS
SIOUX FALLS    MOCLDY    82  71  69 SE17G26   29.84S
HURON          PTSUNNY   83  71  67 SE13G22   29.76R
CHAMBERLAIN    CLOUDY    83  70  64 SE7       29.75S
MITCHELL       MOSUNNY   86  73  65 SE12      29.76R
YANKTON        FAIR      84  72  65 SE14      29.78S
$$

ABBREVIATIONS USED IN REMARKS
   TC - TEMPERATURE IN CELSIUS
  WCI - WIND CHILL INDEX
   HX - HEAT INDEX
  VSB - VISIBILITY




USA.gov is the U.S. government's official web portal to all federal, state and local government web resources and services.